Location: *
(6.0000°S, 32.3997°W)
Time: 20:05:32
(UTC+00:00)

Ariane H10 - Pass Details

Date: 01 April 2020
Orbit: 262 x 23243 km, 3.9° (Epoch: 28 May)

Event Time Altitude Azimuth Distance (km) Brightness Sun altitude
Rises 20:17:38 0° 277° (W) 2,250 9.4 -1.6°
Reaches altitude 10° 20:18:52 10° 281° (W) 1,662 6.9 -1.9°
Maximum altitude 20:22:05 63° 4° (N) 965 3.6 -2.7°
Drops below altitude 10° 20:35:54 10° 83° (E) 6,693 7.2 -6.1°
Enters shadow 20:40:05 - 83° (E) 8,294 7.6 -7.2°
